| time (UTC) | temp F | wind direction | speed knots | gust knots | rain 1hr in | rain 24hr in | rain mn in | humidity % | barometer mb |
| 20260507003001 | 0 | 0.0 | 0.0 | 0.00 | 0.00 | 0.00 | 1002.7 | ||
| 20260507001502 | 0 | 0.0 | 0.0 | 0.00 | 0.00 | 0.00 | 1002.6 | ||
| 20260507000002 | 0 | 0.0 | 0.9 | 0.00 | 0.00 | 0.00 | 1002.5 | ||
| 20260506234502 | 0 | 0.0 | 0.0 | 0.00 | 0.00 | 0.00 | 1002.7 | ||
| 20260506233002 | 0 | 0.0 | 0.0 | 0.00 | 0.00 | 0.00 | 1002.8 | ||
| 20260506231502 | 0 | 0.0 | 0.0 | 0.00 | 0.00 | 0.00 | 1002.8 | ||
| 20260506230003 | 0 | 0.0 | 0.9 | 0.00 | 0.00 | 0.00 | 1003.0 | ||
| 20260506224501 | 0 | 0.0 | 0.0 | 0.00 | 0.00 | 0.00 | 1002.9 | ||
| 20260506223002 | 0 | 0.0 | 0.9 | 0.00 | 0.00 | 0.00 | 1002.8 | ||
| 20260506221502 | 0 | 0.0 | 0.0 | 0.00 | 0.00 | 0.00 | 1002.8 | ||
| 20260506214502 | 0 | 0.0 | 1.7 | 0.00 | 0.00 | 0.00 | 1002.6 | ||
| 20260506213002 | 0 | 0.9 | 2.6 | 0.00 | 0.00 | 0.00 | 1002.7 | ||
| 20260506211501 | 0 | 0.0 | 0.9 | 0.00 | 0.00 | 0.00 | 1002.7 | ||
| 20260506210001 | 0 | 0.0 | 0.9 | 0.00 | 0.00 | 0.00 | 1002.7 | ||
| 20260506204501 | 0 | 0.9 | 3.5 | 0.00 | 0.00 | 0.00 | 1002.6 | ||
| 20260506203001 | 0 | 1.7 | 7.0 | 0.00 | 0.00 | 0.00 | 1002.4 | ||
| 20260506201502 | 0 | 3.5 | 9.6 | 0.00 | 0.00 | 0.00 | 1002.4 | ||
| 20260506200002 | 0 | 2.6 | 7.8 | 0.00 | 0.00 | 0.00 | 1002.2 | ||
| 20260506194501 | 0 | 1.7 | 10.4 | 0.00 | 0.00 | 0.00 | 1002.1 | ||
| 20260506193002 | 0 | 3.5 | 6.1 | 0.00 | 0.00 | 0.00 | 1001.9 | ||
| 20260506191501 | 0 | 1.7 | 6.1 | 0.00 | 0.00 | 0.00 | 1001.4 | ||
| 20260506190003 | 0 | 2.6 | 8.7 | 0.00 | 0.00 | 0.00 | 1001.2 | ||
| 20260506184501 | 0 | 2.6 | 7.0 | 0.00 | 0.00 | 0.00 | 1000.9 | ||
| 20260506183001 | 0 | 4.3 | 7.0 | 0.00 | 0.00 | 0.00 | 1000.9 | ||
| 20260506181501 | 0 | 3.5 | 7.8 | 0.00 | 0.00 | 0.00 | 1000.9 | ||
| 20260506180002 | 0 | 3.5 | 8.7 | 0.00 | 0.00 | 0.00 | 1000.9 | ||
| 20260506174502 | 0 | 4.3 | 7.0 | 0.00 | 0.00 | 0.00 | 1000.8 | ||
| 20260506173003 | 0 | 4.3 | 8.7 | 0.00 | 0.00 | 0.00 | 1000.7 | ||
| 20260506171501 | 0 | 5.2 | 9.6 | 0.00 | 0.00 | 0.00 | 1000.7 | ||
| 20260506170001 | 0 | 5.2 | 9.6 | 0.00 | 0.00 | 0.00 | 1000.8 | ||
| 20260506164502 | 0 | 6.1 | 8.7 | 0.00 | 0.00 | 0.00 | 1000.8 | ||
| 20260506163003 | 0 | 5.2 | 9.6 | 0.00 | 0.00 | 0.00 | 1000.9 | ||
| 20260506161501 | 0 | 7.0 | 11.3 | 0.00 | 0.00 | 0.00 | 1000.8 | ||
| 20260506160002 | 0 | 5.2 | 14.8 | 0.00 | 0.00 | 0.00 | 1000.8 | ||
| 20260506154502 | 0 | 7.0 | 12.2 | 0.00 | 0.00 | 0.00 | 1000.7 | ||
| 20260506153002 | 0 | 7.8 | 13.9 | 0.00 | 0.00 | 0.00 | 1000.8 | ||
| 20260506151502 | 0 | 6.1 | 11.3 | 0.00 | 0.00 | 0.00 | 1000.7 | ||
| 20260506150002 | 0 | 6.1 | 14.8 | 0.00 | 0.00 | 0.00 | 1000.8 | ||
| 20260506144501 | 0 | 6.1 | 13.9 | 0.00 | 0.00 | 0.00 | 1000.9 | ||
| 20260506143002 | 0 | 4.3 | 11.3 | 0.00 | 0.00 | 0.00 | 1001.1 | ||
| 20260506141502 | 0 | 8.7 | 12.2 | 0.00 | 0.00 | 0.00 | 1001.0 | ||
| 20260506140002 | 0 | 5.2 | 11.3 | 0.00 | 0.00 | 0.00 | 1001.2 | ||
| 20260506134501 | 0 | 5.2 | 12.2 | 0.00 | 0.00 | 0.00 | 1001.0 | ||
| 20260506133002 | 0 | 7.8 | 11.3 | 0.00 | 0.00 | 0.00 | 1001.3 | ||
| 20260506131502 | 0 | 5.2 | 13.9 | 0.00 | 0.00 | 0.00 | 1001.4 | ||
| 20260506130001 | 0 | 6.1 | 13.9 | 0.00 | 0.00 | 0.00 | 1001.5 | ||
| 20260506124501 | 0 | 6.1 | 18.2 | 0.00 | 0.00 | 0.00 | 1001.5 | ||
| 20260506123002 | 0 | 7.8 | 13.9 | 0.00 | 0.00 | 0.00 | 1001.6 | ||
| 20260506121502 | 0 | 7.0 | 12.2 | 0.00 | 0.00 | 0.00 | 1001.4 | ||
| 20260506120002 | 0 | 7.0 | 11.3 | 0.00 | 0.00 | 0.00 | 1001.5 | ||
| 20260506114502 | 0 | 7.8 | 12.2 | 0.00 | 0.00 | 0.00 | 1001.6 | ||
| 20260506113001 | 0 | 6.1 | 13.9 | 0.00 | 0.00 | 0.00 | 1001.5 | ||
| 20260506111501 | 0 | 7.8 | 13.9 | 0.00 | 0.00 | 0.00 | 1001.6 | ||
| 20260506110001 | 0 | 10.4 | 15.6 | 0.00 | 0.00 | 0.00 | 1001.6 | ||
| 20260506104502 | 0 | 6.1 | 13.9 | 0.00 | 0.00 | 0.00 | 1001.6 | ||
| 20260506103002 | 0 | 5.2 | 12.2 | 0.00 | 0.00 | 0.00 | 1001.3 | ||
| 20260506101501 | 0 | 7.0 | 12.2 | 0.00 | 0.00 | 0.00 | 1001.3 | ||
| 20260506100001 | 0 | 6.1 | 10.4 | 0.00 | 0.00 | 0.00 | 1001.4 | ||
| 20260506094501 | 0 | 7.0 | 9.6 | 0.00 | 0.00 | 0.00 | 1001.3 | ||
| 20260506093002 | 0 | 4.3 | 8.7 | 0.00 | 0.00 | 0.00 | 1001.3 | ||
| 20260506091502 | 0 | 4.3 | 7.8 | 0.00 | 0.00 | 0.00 | 1001.2 | ||
| 20260506090002 | 0 | 2.6 | 7.0 | 0.00 | 0.00 | 0.00 | 1001.1 | ||
| 20260506084501 | 0 | 3.5 | 8.7 | 0.00 | 0.00 | 0.00 | 1001.0 | ||
| 20260506083002 | 0 | 2.6 | 8.7 | 0.00 | 0.00 | 0.00 | 1001.0 | ||
| 20260506081501 | 0 | 3.5 | 7.8 | 0.00 | 0.00 | 0.00 | 1000.9 | ||
| 20260506073002 | 0 | 2.6 | 4.3 | 0.00 | 0.00 | 0.00 | 1000.8 | ||
| 20260506071501 | 0 | 4.3 | 7.0 | 0.00 | 0.00 | 0.00 | 1000.7 | ||
| 20260506061502 | 0 | 0.0 | 0.0 | 0.00 | 0.00 | 0.00 | 1000.3 | ||
| 20260506044501 | 0 | 0.0 | 1.7 | 0.00 | 0.00 | 0.00 | 1000.2 | ||
| 20260506043002 | 0 | 0.0 | 0.9 | 0.00 | 0.00 | 0.00 | 1000.5 | ||
| 20260506041502 | 0 | 0.9 | 1.7 | 0.00 | 0.00 | 0.00 | 1000.6 | ||
| 20260506040002 | 0 | 0.0 | 1.7 | 0.00 | 0.00 | 0.00 | 1000.5 | ||
| 20260506034502 | 0 | 0.0 | 0.0 | 0.00 | 0.00 | 0.00 | 1000.4 | ||
| 20260506033001 | 0 | 0.0 | 0.0 | 0.00 | 0.00 | 0.00 | 1000.3 | ||
| 20260506031501 | 0 | 0.0 | 0.0 | 0.00 | 0.00 | 0.00 | 1000.5 | ||
| 20260506030001 | 0 | 0.0 | 0.0 | 0.00 | 0.00 | 0.00 | 1000.6 | ||
| 20260506024502 | 0 | 0.0 | 0.0 | 0.00 | 0.00 | 0.00 | 1001.0 | ||
| 20260506023002 | 0 | 0.0 | 0.0 | 0.00 | 0.00 | 0.00 | 1001.0 | ||
| 20260506021501 | 0 | 0.0 | 0.0 | 0.00 | 0.00 | 0.00 | 1001.1 | ||
| 20260506020001 | 0 | 0.0 | 0.9 | 0.00 | 0.00 | 0.00 | 1001.2 | ||
| 20260506014501 | 0 | 0.0 | 0.0 | 0.00 | 0.00 | 0.00 | 1001.2 | ||
| 20260506013001 | 0 | 0.0 | 0.0 | 0.00 | 0.00 | 0.00 | 1001.4 | ||
| 20260506011502 | 0 | 0.0 | 2.6 | 0.00 | 0.00 | 0.00 | 1001.5 | ||
| 20260506010002 | 0 | 0.0 | 3.5 | 0.00 | 0.00 | 0.00 | 1001.4 | ||
| 20260506004501 | 0 | 0.9 | 2.6 | 0.00 | 0.00 | 0.00 | 1001.7 |